Cozumel, Mexico

3:52 AM EST on May 27, 2018 (GMT -0500)
Cozumel

Weather History for MMCZ - October, 2010

Change the Weather History Date:

Sunday, October 24, 2010

  Actual Average Record
Temperature  
Mean Temperature 76 °F -  
Max Temperature 84 °F 84 °F 89 °F (1997)
Min Temperature 69 °F 73 °F 68 °F (2007)
Cooling Degree Days 12    
Growing Degree Days 26 (Base 50)    
Moisture  
Dew Point 73 °F    
Average Humidity 93    
Maximum Humidity 100    
Minimum Humidity 70    
Precipitation  
Precipitation 2.55 in - - ()
Sea Level Pressure  
Sea Level Pressure 29.93 in    
Wind  
Wind Speed 4 mph ()    
Max Wind Speed 14 mph    
Max Gust Speed 23 mph    
Visibility 7.2 miles    
Events      
Averages and records for this station are not official NWS values.
T = Trace of Precipitation, MM = Missing Value Source: Averaged Metar Reports

Daily Weather History Graph

Daily Weather History Graph

Search for Another Location

Airport or City:

Astronomy

Oct. 24, 2010 Rise Set
Actual Time 6:46 AM CDT 6:17 PM CDT
Civil Twilight 6:23 AM CDT 6:39 PM CDT
Nautical Twilight 5:57 AM CDT 7:05 PM CDT
Astronomical Twilight 5:31 AM CDT 7:31 PM CDT
Moon 7:22 PM CDT (10/24) 8:05 AM CDT (10/24)
Length of Visible Light 12h 16m
Length of Day
11h 31m
Full, 97% of the Moon is Illuminated
Oct 24
Full
Oct 30
Last Quarter
Nov 5
New
Nov 13
First Quarter
Nov 21
Full

Hourly Weather History & Observations

Time (CDT) Temp. Heat Index Dew Point Humidity Pressure Visibility Wind Dir Wind Speed Gust Speed Precip Events Conditions
12:41 AM 73.4 °F - 73.4 °F 100% 29.94 in 7.0 mi East 5.8 mph - N/A   Scattered Clouds
1:41 AM 71.6 °F - 71.6 °F 100% 29.94 in 7.0 mi Calm Calm - N/A   Scattered Clouds
2:40 AM 71.6 °F - 71.6 °F 100% 29.93 in 7.0 mi East 3.5 mph - N/A   Scattered Clouds
3:43 AM 71.6 °F - 71.6 °F 100% 29.96 in 7.0 mi ESE 3.5 mph - N/A   Mostly Cloudy
4:54 AM 69.8 °F - 69.8 °F 100% 29.92 in 7.0 mi Calm Calm - N/A   Mostly Cloudy
5:41 AM 71.6 °F - 71.6 °F 100% 29.92 in 7.0 mi ESE 3.5 mph - N/A   Mostly Cloudy
6:40 AM 69.8 °F - 69.8 °F 100% 29.89 in 7.0 mi Calm Calm - N/A   Scattered Clouds
7:53 AM 73.4 °F - 73.4 °F 100% 29.95 in 7.0 mi Calm Calm - N/A   Scattered Clouds
8:42 AM 77.0 °F - 75.2 °F 94% 29.97 in 8.0 mi East 6.9 mph - N/A   Scattered Clouds
9:43 AM 78.8 °F - 75.2 °F 89% 30.01 in 8.0 mi East 8.1 mph - N/A   Mostly Cloudy
10:49 AM 82.4 °F 88.2 °F 73.4 °F 74% 29.98 in 8.0 mi ESE 12.7 mph - N/A   Mostly Cloudy
11:46 AM 82.4 °F 88.2 °F 73.4 °F 74% 29.97 in 8.0 mi East 11.5 mph 23.0 mph N/A   Mostly Cloudy
12:45 PM 84.2 °F 90.9 °F 73.4 °F 70% 29.92 in 8.0 mi East 13.8 mph - N/A   Mostly Cloudy
1:48 PM 82.4 °F 88.2 °F 73.4 °F 74% 29.93 in 8.0 mi East 11.5 mph - N/A   Mostly Cloudy
2:41 PM 80.6 °F 85.4 °F 73.4 °F 79% 29.90 in 8.0 mi East 9.2 mph 20.7 mph N/A   Mostly Cloudy
3:40 PM 77.0 °F - 73.4 °F 89% 29.92 in 7.0 mi East 4.6 mph - N/A   Mostly Cloudy
4:40 PM 75.2 °F - 75.2 °F 100% 29.88 in 7.0 mi East 5.8 mph - N/A   Mostly Cloudy
5:40 PM 77.0 °F - 75.2 °F 94% 29.89 in 7.0 mi East 5.8 mph - N/A   Overcast
6:41 PM 75.2 °F - 73.4 °F 94% 29.86 in 7.0 mi ENE 3.5 mph - N/A   Mostly Cloudy
7:40 PM 73.4 °F - 73.4 °F 100% 29.91 in 7.0 mi Calm Calm - N/A   Overcast
8:40 PM 71.6 °F - 71.6 °F 100% 29.93 in 6.0 mi SE 3.5 mph - N/A   Overcast
9:47 PM 71.6 °F - 71.6 °F 100% 29.97 in 7.0 mi Calm Calm - N/A   Overcast
10:44 PM 71.6 °F - 71.6 °F 100% 29.94 in 7.0 mi East 4.6 mph - N/A   Overcast
11:47 PM 71.6 °F - 71.6 °F 100% 29.92 in 7.0 mi ESE 5.8 mph - N/A   Mostly Cloudy